Casper, WY

6:21 AM MST on December 08, 2019 (GMT -0700)
Natrona County International

Weather History for KCPR - October, 2019

Change the Weather History Date:

Saturday, October 12, 2019

  Actual Average Record
Temperature  
Mean Temperature 41 °F 46 °F  
Max Temperature 60 °F 61 °F 81 °F (1991)
Min Temperature 22 °F 32 °F 9 °F (1969)
Degree Days  
Heating Degree Days 24 19  
Month to date heating degree days 270 201  
Since 1 July heating degree days 441 486  
Cooling Degree Days 0 0  
Month to date cooling degree days 0 0  
Year to date cooling degree days 441 422  
Moisture  
Dew Point 16 °F    
Average Humidity 46    
Maximum Humidity 74    
Minimum Humidity 18    
Precipitation  
Precipitation 0.00 in 0.04 in 0.47 in (2014)
Month to date precipitation 0.42 0.46  
Year to date precipitation 11.12 10.62  
Snow  
Snow 0.00 in 0.20 in - ()
Month to date snowfall 2.4 2.4  
Since 1 July snowfall 2.4 4.2  
Since 1 September snowfall 2.4 4.2  
Snow Depth 0.00 in    
Sea Level Pressure  
Sea Level Pressure 30.02 in    
Wind  
Wind Speed 12 mph (WSW)    
Max Wind Speed 23 mph    
Max Gust Speed 30 mph    
Visibility 10 miles    
Events      
T = Trace of Precipitation, MM = Missing Value Source: NWS Daily Summary

Daily Weather History Graph

Daily Weather History Graph

Search for Another Location

Airport or City:

Astronomy

Oct. 12, 2019 Rise Set
Actual Time 7:15 AM MDT 6:28 PM MDT
Civil Twilight 6:47 AM MDT 6:56 PM MDT
Nautical Twilight 6:14 AM MDT 7:29 PM MDT
Astronomical Twilight 5:41 AM MDT 8:02 PM MDT
Moon 6:28 PM MDT (10/12) 5:51 AM MDT (10/12)
Length of Visible Light 12h 09m
Length of Day
11h 12m
Waxing Gibbous, 99% of the Moon is Illuminated
Oct 12
Waxing Gibbous
Oct 13
Full
Oct 21
Last Quarter
Oct 27
New
Nov 4
First Quarter

Hourly Weather History & Observations

Time (MDT) Temp. Windchill Dew Point Humidity Pressure Visibility Wind Dir Wind Speed Gust Speed Precip Events Conditions
12:53 AM 27.0 °F 18.0 °F 17.1 °F 66% 30.13 in 10.0 mi WSW 9.2 mph - N/A   Clear
1:53 AM 27.0 °F - 17.1 °F 66% 30.12 in 10.0 mi North - - N/A   Clear
2:53 AM 26.1 °F 16.2 °F 16.0 °F 66% 30.10 in 10.0 mi WSW 10.4 mph - N/A   Clear
3:53 AM 28.9 °F 20.4 °F 15.1 °F 56% 30.08 in 10.0 mi WSW 9.2 mph - N/A   Clear
5:53 AM 28.9 °F 19.8 °F 14.0 °F 54% 30.06 in 10.0 mi WSW 10.4 mph - N/A   Clear
6:53 AM 32.0 °F 23.6 °F 14.0 °F 48% 30.09 in 10.0 mi WSW 10.4 mph - N/A   Clear
7:53 AM 33.1 °F 24.4 °F 14.0 °F 46% 30.10 in 10.0 mi WSW 11.5 mph - N/A   Clear
8:53 AM 37.9 °F 28.2 °F 14.0 °F 38% 30.09 in 10.0 mi SSW 18.4 mph - N/A   Clear
9:53 AM 42.1 °F 33.6 °F 14.0 °F 32% 30.07 in 10.0 mi SW 18.4 mph 26.5 mph N/A   Clear
10:53 AM 45.0 °F 37.1 °F 15.1 °F 30% 30.06 in 10.0 mi SSW 19.6 mph 28.8 mph N/A   Clear
11:53 AM 50.0 °F - 16.0 °F 26% 30.01 in 10.0 mi South 21.9 mph 26.5 mph N/A   Clear
12:20 PM 53.1 °F - 17.1 °F 24% 30.00 in 10.0 mi SW 17.3 mph 26.5 mph N/A   Clear
12:53 PM 54.0 °F - 17.1 °F 23% 29.97 in 10.0 mi SW 19.6 mph 27.6 mph N/A   Clear
1:53 PM 57.0 °F - 17.1 °F 21% 29.94 in 10.0 mi West 18.4 mph 27.6 mph N/A   Clear
2:53 PM 59.0 °F - 15.1 °F 18% 29.91 in 10.0 mi West 17.3 mph 25.3 mph N/A   Clear
3:53 PM 59.0 °F - 15.1 °F 18% 29.91 in 10.0 mi WNW 17.3 mph - N/A   Clear
4:53 PM 57.0 °F - 15.1 °F 19% 29.91 in 10.0 mi WNW 16.1 mph - N/A   Clear
6:53 PM 41.0 °F 38.0 °F 17.1 °F 38% 29.95 in 10.0 mi West 4.6 mph - N/A   Clear
7:53 PM 37.9 °F 34.4 °F 17.1 °F 43% 29.97 in 10.0 mi South 4.6 mph - N/A   Clear
8:53 PM 36.0 °F 31.1 °F 16.0 °F 44% 29.98 in 10.0 mi NNW 5.8 mph - N/A   Clear
9:53 PM 30.9 °F 25.2 °F 18.0 °F 59% 29.99 in 10.0 mi WSW 5.8 mph - N/A   Clear
10:53 PM 27.0 °F 21.6 °F 17.1 °F 66% 30.00 in 10.0 mi NW 4.6 mph - N/A   Clear
11:53 PM 25.0 °F 19.3 °F 18.0 °F 75% 29.98 in 10.0 mi West 4.6 mph - N/A   Clear